Weather History for Provincetown, MA

Change the Weather History Date:

Tuesday, September 24, 2013

  Actual Average Record
Temperature  
Mean Temperature 54 °F -  
Max Temperature 59 °F 65 °F 78 °F (1951)
Min Temperature 50 °F 54 °F 39 °F (2008)
Degree Days  
Heating Degree Days 10    
Growing Degree Days 4 (Base 50)    
Moisture  
Dew Point 43 °F    
Average Humidity 66    
Maximum Humidity 72    
Minimum Humidity 55    
Precipitation  
Precipitation 0.07 in - - ()
Sea Level Pressure  
Sea Level Pressure 29.91 in    
Wind  
Wind Speed 10 mph (NNW)    
Max Wind Speed 16 mph    
Max Gust Speed 25 mph    
Visibility 10 miles    
Events      
Averages and records for this station are not official NWS values.
T = Trace of Precipitation, MM = Missing Value Source: NWS Daily Summary

Daily Weather History Graph

Daily Weather History Graph

Search for Another Location

Airport:

Trip Planner

Search our weather history database for the weather conditions in past years. The results will help you decide how hot, cold, wet, or windy it might be!

Date:

Astronomy

Sep. 24, 2013 Rise Set
Actual Time 6:30 AM EDT 6:34 PM EDT
Civil Twilight 6:02 AM EDT 7:02 PM EDT
Nautical Twilight 5:30 AM EDT 7:34 PM EDT
Astronomical Twilight 4:56 AM EDT 8:07 PM EDT
Moon 9:44 PM EDT (9/24) 11:47 AM EDT (9/24)
Length of Visible Light 12h 59m
Length of Day
12h 03m
Waning Gibbous, 73% of the Moon is Illuminated
Sep 24
Waning Gibbous
Sep 26
Last Quarter
Oct 4
New
Oct 11
First Quarter
Oct 18
Full

Hourly Weather History & Observations

Time (EDT) Temp. Dew Point Humidity Pressure Visibility Wind Dir Wind Speed Gust Speed Precip Events Conditions
12:15 AM 51.8 °F 39.2 °F 62% 29.98 in 10.0 mi NNW 11.5 mph - N/A   Scattered Clouds
12:35 AM 51.8 °F 41.0 °F 67% 29.98 in 10.0 mi NW 11.5 mph - N/A   Overcast
12:55 AM 51.8 °F 41.0 °F 67% 29.98 in 10.0 mi NNW 9.2 mph - N/A   Overcast
1:15 AM 51.8 °F 41.0 °F 67% 29.98 in 10.0 mi NNW 10.4 mph - N/A   Overcast
1:35 AM 51.8 °F 41.0 °F 67% 29.98 in 10.0 mi NW 9.2 mph - 0.01 in   Overcast
1:55 AM 51.8 °F 41.0 °F 67% 29.97 in 10.0 mi NW 10.4 mph - 0.01 in   Mostly Cloudy
2:15 AM 51.8 °F 41.0 °F 67% 29.96 in 10.0 mi NW 10.4 mph - N/A   Scattered Clouds
2:35 AM 51.8 °F 42.8 °F 71% 29.95 in 10.0 mi NW 11.5 mph - N/A   Scattered Clouds
2:55 AM 51.8 °F 42.8 °F 71% 29.95 in 10.0 mi NW 10.4 mph - N/A   Mostly Cloudy
3:15 AM 51.8 °F 42.8 °F 71% 29.95 in 10.0 mi NW 10.4 mph - N/A   Overcast
3:35 AM 51.8 °F 42.8 °F 71% 29.95 in 10.0 mi NW 12.7 mph - N/A   Overcast
3:55 AM 51.8 °F 42.8 °F 71% 29.95 in 10.0 mi NW 12.7 mph - N/A   Overcast
4:15 AM 51.8 °F 42.8 °F 71% 29.95 in 10.0 mi NW 16.1 mph - N/A   Overcast
4:35 AM 51.8 °F 42.8 °F 71% 29.95 in 10.0 mi NW 13.8 mph - N/A   Overcast
4:55 AM 50.0 °F 41.0 °F 71% 29.94 in 10.0 mi NW 12.7 mph - N/A   Partly Cloudy
5:15 AM 50.0 °F 41.0 °F 71% 29.94 in 10.0 mi NW 11.5 mph - N/A   Clear
5:35 AM 50.0 °F 41.0 °F 71% 29.94 in 10.0 mi NW 15.0 mph 19.6 mph N/A   Clear
5:55 AM 50.0 °F 41.0 °F 71% 29.94 in 10.0 mi NW 13.8 mph 18.4 mph N/A   Clear
6:15 AM 50.0 °F 41.0 °F 71% 29.94 in 10.0 mi NW 15.0 mph 19.6 mph N/A   Partly Cloudy
6:35 AM 50.0 °F 41.0 °F 71% 29.94 in 10.0 mi NW 15.0 mph 21.9 mph N/A   Partly Cloudy
6:55 AM 50.0 °F 41.0 °F 71% 29.94 in 10.0 mi NW 16.1 mph 20.7 mph N/A   Partly Cloudy
7:15 AM 51.8 °F 41.0 °F 67% 29.94 in 10.0 mi NW 16.1 mph 25.3 mph N/A   Scattered Clouds
7:35 AM 51.8 °F 42.8 °F 71% 29.94 in 10.0 mi NW 15.0 mph 21.9 mph N/A   Mostly Cloudy
7:55 AM 51.8 °F 42.8 °F 71% 29.94 in 10.0 mi WNW 12.7 mph 19.6 mph 0.01 in   Mostly Cloudy
8:15 AM 51.8 °F 42.8 °F 71% 29.93 in 10.0 mi WNW 11.5 mph - N/A   Mostly Cloudy
8:35 AM 51.8 °F 42.8 °F 71% 29.93 in 10.0 mi WNW 12.7 mph 19.6 mph N/A   Mostly Cloudy
8:55 AM 51.8 °F 42.8 °F 71% 29.92 in 10.0 mi NW 13.8 mph 18.4 mph N/A   Mostly Cloudy
9:15 AM 53.6 °F 42.8 °F 67% 29.92 in 10.0 mi NW 11.5 mph 19.6 mph N/A   Overcast
9:35 AM 53.6 °F 41.0 °F 62% 29.91 in 10.0 mi Calm Calm - N/A   Scattered Clouds
9:55 AM 53.6 °F 41.0 °F 62% 29.90 in 10.0 mi Calm Calm - 0.01 in   Scattered Clouds
10:15 AM 53.6 °F 41.0 °F 62% 29.90 in 10.0 mi NW 13.8 mph 20.7 mph N/A   Mostly Cloudy
10:35 AM 55.4 °F 42.8 °F 63% 29.90 in 1.2 mi NW 15.0 mph 19.6 mph 0.01 in   Overcast
10:55 AM 53.6 °F 41.0 °F 62% 29.89 in - NW 13.8 mph 18.4 mph 0.01 in   Mostly Cloudy
11:15 AM 55.4 °F 41.0 °F 58% 29.89 in 10.0 mi NW 15.0 mph - N/A   Mostly Cloudy
11:35 AM - - N/A% 29.88 in 10.0 mi NW 12.7 mph - 0.01 in   Mostly Cloudy
11:55 AM 55.4 °F 42.8 °F 63% 29.89 in 10.0 mi NW 13.8 mph 19.6 mph 0.01 in   Partly Cloudy
12:15 PM 55.4 °F 42.8 °F 63% 29.90 in 10.0 mi NW 13.8 mph 20.7 mph 0.01 in   Scattered Clouds
12:35 PM 57.2 °F 42.8 °F 59% 29.90 in 10.0 mi NW 13.8 mph 18.4 mph 0.01 in   Partly Cloudy
12:55 PM 57.2 °F 42.8 °F 59% 29.88 in 10.0 mi NW 11.5 mph - 0.02 in   Partly Cloudy
1:15 PM 57.2 °F 42.8 °F 59% 29.87 in 10.0 mi WNW 11.5 mph - N/A   Clear
1:35 PM 59.0 °F 42.8 °F 55% 29.87 in 10.0 mi WNW 9.2 mph - N/A   Clear
1:55 PM 57.2 °F 42.8 °F 59% 29.87 in 10.0 mi NW 8.1 mph - N/A   Clear
2:15 PM 59.0 °F 42.8 °F 55% 29.86 in 10.0 mi WNW 8.1 mph - N/A   Clear
2:35 PM 59.0 °F 42.8 °F 55% 29.85 in 10.0 mi NNW 8.1 mph - N/A   Clear
2:55 PM 59.0 °F 42.8 °F 55% 29.85 in 10.0 mi NNW 8.1 mph - N/A   Clear
3:15 PM 57.2 °F 42.8 °F 59% 29.85 in 10.0 mi North 6.9 mph - N/A   Clear
3:35 PM 57.2 °F 44.6 °F 63% 29.85 in 10.0 mi NNE 5.8 mph - N/A   Clear
3:55 PM 57.2 °F 44.6 °F 63% 29.84 in 10.0 mi NNE 6.9 mph - N/A   Clear
4:15 PM 57.2 °F 44.6 °F 63% 29.85 in 10.0 mi NE 6.9 mph - N/A   Clear
4:35 PM 57.2 °F 42.8 °F 59% 29.85 in 10.0 mi ENE 6.9 mph - N/A   Clear
4:55 PM 57.2 °F 44.6 °F 63% 29.86 in 10.0 mi NE 5.8 mph - N/A   Clear
5:15 PM 57.2 °F 44.6 °F 63% 29.86 in 10.0 mi ENE 5.8 mph - N/A   Clear
5:35 PM 57.2 °F 44.6 °F 63% 29.86 in 10.0 mi East 3.5 mph - N/A   Mostly Cloudy
5:55 PM 57.2 °F 44.6 °F 63% 29.86 in 10.0 mi East 4.6 mph - N/A   Partly Cloudy
6:15 PM 55.4 °F 44.6 °F 67% 29.86 in 10.0 mi Calm Calm - N/A   Mostly Cloudy
6:35 PM 55.4 °F 44.6 °F 67% 29.86 in 10.0 mi Calm Calm - N/A   Overcast
6:55 PM 55.4 °F 46.4 °F 72% 29.87 in 10.0 mi Calm Calm - N/A   Overcast
7:15 PM 55.4 °F 44.6 °F 67% 29.88 in 10.0 mi Calm Calm - N/A   Overcast
7:35 PM 53.6 °F 44.6 °F 72% 29.89 in 10.0 mi Calm Calm - N/A   Mostly Cloudy
7:55 PM 53.6 °F 44.6 °F 72% 29.89 in 10.0 mi NNE 5.8 mph - N/A   Scattered Clouds
8:15 PM 55.4 °F 46.4 °F 72% 29.90 in 10.0 mi NE 11.5 mph - N/A   Scattered Clouds
8:35 PM 53.6 °F 44.6 °F 72% 29.90 in 10.0 mi NE 5.8 mph - N/A   Partly Cloudy
8:55 PM 53.6 °F 44.6 °F 72% 29.90 in 10.0 mi NE 6.9 mph - N/A   Scattered Clouds
9:15 PM 55.4 °F 44.6 °F 67% 29.90 in 10.0 mi NNE 6.9 mph - N/A   Mostly Cloudy
9:35 PM 55.4 °F 44.6 °F 67% 29.90 in 10.0 mi NNE 4.6 mph - N/A   Overcast
9:55 PM 55.4 °F 44.6 °F 67% 29.90 in 10.0 mi NNE 4.6 mph - N/A   Overcast
10:15 PM 55.4 °F 44.6 °F 67% 29.91 in 10.0 mi North 5.8 mph - N/A   Overcast
10:35 PM 55.4 °F 44.6 °F 67% 29.90 in 10.0 mi North 5.8 mph - N/A   Mostly Cloudy
10:55 PM 53.6 °F 44.6 °F 72% 29.90 in 10.0 mi North 5.8 mph - N/A   Partly Cloudy
11:15 PM 55.4 °F 44.6 °F 67% 29.90 in 10.0 mi North 6.9 mph - N/A   Scattered Clouds
11:35 PM 55.4 °F 46.4 °F 72% 29.91 in 10.0 mi NW 5.8 mph - N/A   Mostly Cloudy
11:55 PM 55.4 °F 46.4 °F 72% 29.90 in 10.0 mi NW 5.8 mph - N/A   Overcast